www.pogodaiklimat.ru

Погода и климат >> Архив погоды >> Россия >> Коми >> Ухта


АРХИВ ПОГОДЫ в Ухте

Время (UTC), дата Ветер
(напр.,м/с)
 
Видим.   Явления Облачность Т
(С)
Тd
(С)
f
(%)
Тe
(С)
Тes
(С)
Комфортность P
(гПа)
Po
(гПа)
Тmin
(С)
Tmax
(С)
R
(мм)
R24
(мм)
S
(см)
12 14.04 З 5-10
{11}
12 км 10/8 1410 м
[Sc Ci fib]
+3.7 -6.4 48 -1 -0 по сезону 1024.6 1007.4
15 14.04 З 6-10
{13}
12 км 10/3 1000 м
[Sc Cs]
+3.4 -5.6 52 -2 -2 по сезону 1021.6 1004.4 +4.2
18 14.04 З 5-10
{13}
10 км 10/0
[Ac und]
+3.0 -4.2 59 -2 -2 по сезону 1019.0 1001.9
21 14.04 З 6-12
{13}
10 км 10/6 700 м
[Sc Ac trans]
+2.2 -0.8 81 -4 -4 по сезону 1015.5 998.3
00 15.04 З 6-11
{12}
5000 м слаб. ливневой снег 10/10 240 м
[Cb cap]
+0.3 -0.3 96 -6 -6 по сезону 1012.1 994.9
03 15.04 З 4
{11}
3000 м слаб. ливневой снег 10/10 210 м
[Cb cap]
+0.3 0.0 98 -5 -5 по сезону 1009.8 992.6 +0.3 3 73
06 15.04 З 3
{11}
10 км слаб. ливневой снег 8/8 1000 м
[Cb cap]
+0.6 -0.2 94 -4 -3 по сезону 1009.7 992.6
09 15.04 СЗ 3 12 км {ливн. осадки} 9/8 840 м
[Cb cap Ac trans]
+3.8 -2.5 63 0 +1 по сезону 1010.1 993.1
12 15.04 СЗ 3
{11}
12 км {ливн. осадки} 9/6 840 м
[Cb cap Ac trans Ci fib]
+3.2 -2.5 66 -0 +1 по сезону 1010.7 993.7
15 15.04 СЗ 2 12 км 10/3 1000 м
[Sc Ac As]
+2.1 -5.5 57 -1 -1 по сезону 1011.0 993.9 +4.5 0.6
18 15.04 С 3 10 км слаб. ливневой снег {метель} 10/8 300 м
[Cb cap Ac trans]
-1.2 -1.9 95 -6 -6 по сезону 1011.5 994.2
21 15.04 С 2 10 км слаб. ливневой снег 10/10 400 м
[Cb cap]
-2.5 -4.7 85 -6 -6 по сезону 1011.9 994.5
00 16.04 С 5 10 км слаб. ливневой снег 10/0
[Ac und]
-4.6 -8.5 74 -11 -11 прохладно 1014.4 996.9
03 16.04 С 5
{14}
12 км 10/0
[Ac trans Ci fib]
-9.2 -16.0 58 -17 -16 очень
холодно
1019.2 1001.2 -9.3 0.5 74
06 16.04 С 5-10
{14}
12 км 8/4 1000 м
[Cu hum Ci fib]
-9.0 -17.0 52 -16 -15 очень
холодно
1022.9 1004.8 -9.6
09 16.04 С 6-12
{16}
12 км 8/6 1000 м
[Sc diur, vesp Ci fib]
-7.3 -16.8 47 -15 -14 очень
холодно
1026.3 1008.2
12 16.04 С 6-11
{16}
12 км 4/4 1000 м
[Sc]
-6.4 -15.9 47 -14 -13 очень
холодно
1029.4 1011.4
15 16.04 С 5-10
{14}
12 км ясно -7.3 -16.8 47 -14 -14 очень
холодно
1032.0 1013.8 -6.1
18 16.04 С 2-10
{14}
10 км ясно -10.2 -18.6 50 -15 -15 очень
холодно
1034.1 1015.7
21 16.04 С 3 10 км ясно -12.0 -18.2 60 -18 -18 очень
холодно
1035.2 1016.7
00 17.04 СЗ 2 10 км ясно -14.7 -18.1 75 -20 -20 очень
холодно
1036.1 1017.4
03 17.04 нст 1 12 км 8/0
[Ci fib]
-13.8 -18.1 70 -16 -15 очень
холодно
1036.3 1017.5 -15.6 74
06 17.04 З 2 12 км 4/0
[Ac trans Ci fib]
-7.9 -14.0 62 -12 -6 очень
холодно
1035.8 1017.5
09 17.04 З 3 12 км 4/0
[Ac lent Ci fib]
-1.1 -15.0 34 -5 0 прохладно 1033.2 1015.5
12 17.04 З 4 12 км 3/0
[Ac lent]
+0.5 -15.9 28 -4 -1 прохладно 1030.7 1013.1
15 17.04 З 4 12 км 8/0
[Ac trans]
-0.4 -13.5 36 -5 -5 прохладно 1028.5 1011.0 +0.5
18 17.04 З 3 10 км 8/0
[Ac trans]
-2.1 -12.7 44 -6 -6 по сезону 1027.4 1009.7
21 17.04 З 3 10 км 8/0
[Ac trans]
-2.4 -9.7 57 -7 -7 по сезону 1026.0 1008.3
00 18.04 З 2 10 км 8/0
[Ac trans]
-2.5 -8.5 63 -6 -6 по сезону 1024.3 1006.7
03 18.04 ЮЗ 2 12 км в посл. час ливневой снег 10/5 300 м
[Cb cap Ac trans Ci fib]
-1.8 -6.4 71 -5 -5 по сезону 1023.4 1005.9 -2.6 0.0 73
06 18.04 З 3 12 км {ливн. осадки} 10/3 600 м
[Sc Ac trans]
+1.8 -2.3 74 -2 -1 по сезону 1022.8 1005.5
09 18.04 З 2 12 км 10/10 660 м
[Sc]
+2.3 -1.0 79 -1 -1 по сезону 1023.4 1006.1
12 18.04 З 3 12 км {ливн. осадки} 10/10 800 м
[Cb cap]
+3.2 0.0 80 -1 -1 по сезону 1024.0 1006.8
15 18.04 З 2 12 км в посл. час ливневой снег 10/10 960 м
[Cb cap]
+3.2 -0.3 78 0 0 по сезону 1024.0 1006.8 +3.6 0.0
18 18.04 З 3 10 км {ливн. осадки} 10/6 1300 м
[Cb cap Ac trans]
+1.9 -0.3 85 -2 -2 по сезону 1023.8 1006.5
21 18.04 З 3 10 км 8/8 1000 м
[Sc]
+1.5 -1.3 82 -3 -3 по сезону 1023.5 1006.2
00 19.04 З 3 10 км 8/8 750 м
[Sc]
+0.7 -1.6 85 -4 -4 по сезону 1022.8 1005.5
03 19.04 З 3 12 км в посл. час ливневой снег 10/6 500 м
[Cb cap Ac As]
+0.9 -0.2 92 -4 -4 по сезону 1021.8 1004.5 +0.7 0.4 72
06 19.04 СЗ 2 12 км {ливн. осадки} 10/10 480 м
[Sc]
+2.6 -0.7 79 -0 -0 по сезону 1021.7 1004.5
09 19.04 СЗ 5 12 км 10/10 400 м
[Sc]
+3.0 +0.1 81 -2 -2 по сезону 1022.0 1004.8
12 19.04 СЗ 3 12 км 10/10 750 м
[Sc]
+3.8 -0.5 73 0 0 по сезону 1022.2 1005.0
15 19.04 С 2 12 км 10/10 900 м
[Sc]
+3.6 -1.4 70 +1 +1 по сезону 1022.1 1004.9 +3.8
18 19.04 10 км 10/10 500 м
[Sc]
+1.6 -0.3 87 1022.7 1005.4
21 19.04 10 км 10/10 400 м
[Sc]
+1.4 0.0 90 1023.0 1005.7
00 20.04 нст 1 10 км 10/10 330 м
[Sc]
+1.2 -0.2 90 -1 -1 тепло 1023.0 1005.7
03 20.04 СЗ 2 12 км 10/10 240 м
[Frnb]
+1.4 +0.6 94 -2 -2 по сезону 1023.2 1005.9 +1.1 71
06 20.04 нст 1 12 км 10/10 270 м
[Frnb]
+2.0 +0.7 91 1024.1 1006.8
09 20.04 12 км 10/6 600 м
[Sc Ac trans]
+4.4 +0.2 74 1024.4 1007.3
12 20.04 нст 1 12 км 10/8 700 м
[Sc Ac trans]
+4.8 -0.2 70 +4 +4 по сезону 1024.1 1007.0
15 20.04 нст 1 12 км 10/6 1200 м
[Sc]
+4.1 -1.7 66 +3 +3 тепло 1023.5 1006.3 +5.6
18 20.04 З 2 10 км 3/0
[Ac und]
+1.0 -2.9 75 -2 -2 по сезону 1022.6 1005.3
21 20.04 10 км 8/0
[Ci fib]
-1.0 -2.9 87 1022.0 1004.5
00 21.04 10 км 10/0
[Ac und]
-0.3 -3.3 80 1020.5 1003.1
03 21.04 З 2 12 км 10/0
[Ac und]
+1.1 -2.7 76 -2 -2 по сезону 1018.7 1001.5 -1.0 69
06 21.04 З 3 12 км {ливн. осадки} 10/6 800 м
[Sc Ac trans]
+3.7 -1.9 67 0 +1 по сезону 1018.4 1001.3
09 21.04 З 3 12 км 10/4 600 м
[Sc Ac trans]
+5.7 -1.0 62 +3 +5 по сезону 1018.2 1001.3

 

Местоположение метеостанции Ухта (Коми, Россия): широта 63.55 долгота 53.82 высота над уровнем моря 137 м.

В архиве по умолчанию представлена погода в Ухте за последнюю неделю. Архивные данные за месяц целиком и за предыдущие месяцы, начиная с января 2011 года, Вы можете получить, выбрав интересующий диапазон дат из раскрывающегося списка и нажав кнопку "Ввод!".


*Определитесь, кто Вы:
робот инопланетянин человек

Внимание! Время в таблицах - всемирное. Для получения местного времени необходимо прибавить поправку, которая равна 3 ч.

Смотрите также архив погоды в соседних городах и на ближайших метеорологических станциях:

Погода в Кедва-Воме (Коми, Россия) (76 км)
Погода в Ираеле (Коми, Россия) (133 км)
Погода в Троицко-Печорском (Коми, Россия) (152 км)
Погода в Помоздино (Коми, Россия) (154 км)
Погода в Весляне (Коми, Россия) (159 км)
Погода в Ижме (Коми, Россия) (161 км)
Погода в Луни (Коми, Россия) (162 км)
Погода в Вуктыле (Коми, Россия) (176 км)
Погода в Усть-Щугоре (Коми, Россия) (202 км)
Погода в Усть-Куломе (Коми, Россия) (208 км)

Пояснения к столбцам:

Ветер - указаны скорость ветра в м/с - средняя за 10 мин, порывы в срок и между сроками (в фигурных скобках) и направление, откуда дует ветер: С - северный, СВ - северо-восточный, В - восточный, ЮВ - юго-восточный, Ю - южный, ЮЗ - юго-западный, З - западный, СЗ - северо-западный.
Видимость - горизонтальная дальность видимости в метрах или километрах. При видимости от 1 до 10 км при отсутствии осадков обычно наблюдается дымка, при ухудшении видимости до 1 км и менее - туман. В сухую погоду видимость может ухудшаться дымом, пылью или мглою.
Явления - указаны атмосферные явления, наблюдавшиеся в срок или в последний час перед сроком; фигурными скобками обозначены явления, наблюдавшиеся между сроками (за 1-3 часа до срока); квадратными скобками обозначены град или гололедные отложения с указанием их диаметра в мм.
Облачность - указаны через наклонную черту общая и нижняя облачность в баллах и высота нижней границы облаков в метрах; квадратными скобками обозначены формы облаков: Ci - перистые, Cs - перисто-слоистые, Cc - перисто-кучевые, Ac - высококучевые, As - высокослоистые, Sc - слоисто-кучевые, Ns - слоисто-дождевые, Cu - кучевые, Cb - кучево-дождевые. Подробнее классификацию облаков см. в Атласе облаков (PDF).
T - Температура воздуха - температура, измеренная на высоте 2 м над землей.
Td - Температура точки росы - температура, при понижении до которой содержащийся в воздухе водяной пар достигнет насыщения.
f - Относительная влажность воздуха - влажноcть воздуха, измеренная на высоте 2 м над землей.
Te - Эффективная температура - температура, которую ощущает одетый по сезону человек в тени. Характеристика душности погоды. При расчете учитывается влияние влажности воздуха и скорости ветра на теплоощущения человека.
Tes - Эффективная температура на солнце - температура, которую ощущает человек, с поправкой на солнечный нагрев. Характеристика знойности погоды. Зависит от высоты солнца над горизонтом, облачности и скорости ветра. Ночью, в пасмурную погоду, а также при ветре 12 м/с и более поправка равна нулю.
P - Атмосферное давление - приведенное к уровню моря атмосферное давление.
Po - Атмосферное давление - измеренное на уровне метеостанции атмосферное давление.
Tmin - Минимальная температура - минимум температуры воздуха на высоте 2 м над землей.
Tmax - Максимальная температура - максимум температуры воздуха на высоте 2 м над землей.
R - Количество осадков - Количество выпавших осадков за период времени, мм. При наведении курсора мыши на число - период времени, за который выпало указанное количество осадков.
R24 - Количество осадков - Количество выпавших осадков за 24 часа, мм.
S - Снежный покров - Высота снежного покрова, см. При наведении курсора мыши на число - состояние снежного покрова и степень покрытия местности в баллах.